Regional Weather Roundup
Issued by NWS

Home | Current Version | Previous Version | Graphics & Text | Print | Product List | Glossary On
Versions: 1 2 3 4 5 6 7 8 9 10 11 12 13 14 15 16 17 18 19 20 21 22 23 24 25 26 27 28 29 30 31 32 33 34 35 36 37 38 39 40 41 42 43 44 45 46 47 48 49 50
162
ASUS43 KOAX 042010
RWRNE

WEATHER ROUNDUP FOR NEBRASKA
NATIONAL WEATHER SERVICE OMAHA NE
300 PM CDT WED MAY 04 2016

NOTES: SATELLITE DATA IS BEING USED TO AUGMENT CLOUD COVER ABOVE
       12000 FEET.
       "FAIR" INDICATES FEW OR NO CLOUDS BELOW 12,000 FEET WITH NO
       SIGNIFICANT WEATHER AND/OR OBSTRUCTIONS TO VISIBILITY.

  * THESE STATIONS DO NOT REPORT WEATHER SUCH AS RAIN...SNOW OR FOG.

NEZ001>004-019>022-054>056-042100-
NEBRASKA PANHANDLE

CITY           SKY/WX    TMP DP  RH WIND       PRES   REMARKS
SCOTTSBLUFF    SUNNY     74  38  27 CALM      30.14F
ALLIANCE       SUNNY     72  39  30 VRB5      30.14F
CHADRON        SUNNY     75  40  28 E5        30.11F
KIMBALL        SUNNY     71  36  27 CALM      30.19F
SIDNEY         SUNNY     72  38  29 E6        30.17F
$$

NEZ057>060-069>072-079>082-042100-
SOUTHWEST NEBRASKA

CITY           SKY/WX    TMP DP  RH WIND       PRES   REMARKS
NORTH PLATTE   SUNNY     75  38  26 NE8       30.11F
IMPERIAL       SUNNY     75  37  25 NE8       30.13F
LEXINGTON      SUNNY     71  38  30 N9        30.11F
MCCOOK         SUNNY     75  40  28 CALM      30.10F
OGALLALA       MOSUNNY   74  38  26 NE7       30.13F
$$

NEZ005>010-023>029-035>040-094-042100-
NORTH CENTRAL NEBRASKA

CITY           SKY/WX    TMP DP  RH WIND       PRES   REMARKS
VALENTINE      SUNNY     73  34  23 N8G16     30.11F
AINSWORTH      SUNNY     69  34  27 N3        30.12S
BROKEN BOW     SUNNY     71  44  37 N12G21    30.11S
O`NEILL        SUNNY     67  29  24 N15       30.10F
ORD            SUNNY     69  33  26 N14G22    30.09F
THEDFORD       SUNNY     73  38  27 NE12G17   30.13S
$$

NEZ041-046>049-061>064-073>077-083>087-042100-
SOUTH CENTRAL NEBRASKA

CITY           SKY/WX    TMP DP  RH WIND       PRES   REMARKS
GRAND ISLAND   SUNNY     69  31  24 N14       30.09F
AURORA         SUNNY     68  32  25 N7G20     30.08F
HASTINGS       SUNNY     68  32  26 N12       30.09F
HEBRON         SUNNY     69  31  24 N10G20    30.07F
HOLDREGE       SUNNY     69  33  26 N6        30.11F
KEARNEY *      SUNNY     70  34  26 N12G22    30.11F
YORK           SUNNY     66  34  30 N10G24    30.08F
$$

NEZ011>018-030>034-042>045-042100-
NORTHEAST NEBRASKA

CITY           SKY/WX    TMP DP  RH WIND       PRES   REMARKS
NORFOLK        SUNNY     66  32  28 NW13G18   30.06F
ALBION         SUNNY     66  33  29 N8        30.08F
BLAIR          SUNNY     66  40  38 N13G18    30.04S
COLUMBUS *     SUNNY     66  36  32 NW14      30.08F
FREMONT        SUNNY     67  35  30 N9G18     30.06S
TEKAMAH        SUNNY     67  40  37 N16       30.04F
WAYNE          SUNNY     66  39  37 NW14      30.07S
$$

NEZ050>053-065>068-078-088>093-042100-
SOUTHEAST NEBRASKA

CITY           SKY/WX    TMP DP  RH WIND       PRES   REMARKS
LINCOLN        SUNNY     71  36  27 N18       30.06F
OMAHA EPPLEY   MOSUNNY   68  39  34 N18G26    30.02F
BEATRICE       SUNNY     67  38  33 N15       30.06S
FALLS CITY     SUNNY     69  40  34 N14G21    30.01F
NEBRASKA CITY  SUNNY     67  32  26 N18       30.03S
PLATTSMOUTH    SUNNY     68  36  30 NW16G25   30.04S
$$

NEZ044-045-051>053-067-042100-
OMAHA AREA

CITY           SKY/WX    TMP DP  RH WIND       PRES   REMARKS
OMAHA EPPLEY   MOSUNNY   68  39  34 N18G26    30.02F
BLAIR          SUNNY     66  40  38 N13G18    30.04S
FREMONT        SUNNY     67  35  30 N9G18     30.06S
MILLARD        SUNNY     67  39  36 NW8       30.04S
OFFUTT AFB     SUNNY     66  40  38 N14G22    30.03S
PLATTSMOUTH    SUNNY     68  36  30 NW16G25   30.04S
WAHOO          FAIR      69  32  25 N17       30.05F
$$




USA.gov is the U.S. government's official web portal to all federal, state and local government web resources and services.